Location: Borgo
(42.3939°N, 9.2791°E)
Time: 08:57:15
(UTC+00:00)

USA 229 - Visible Passes

Search period start: 09 May 2021 00:00
Search period end: 19 May 2021 00:00
Orbit: 958 x 1254 km, 63.4° (Epoch: 23 April)

Date Brightness Start Highest point End Pass type
(mag) Time Alt. Az. Time Alt. Az. Time Alt. Az.
09 May 5.0 18:53:18 10° NW 19:00:18 45° WSW 19:07:34 10° S visible
10 May 6.3 20:02:21 10° W 20:05:27 13° WSW 20:08:35 10° SW visible
11 May 6.0 19:15:38 10° WNW 19:21:06 22° WSW 19:26:42 10° SSW visible
